Weather in Ryabovo

Russia / Ivanovo Oblast     56°55′29″N   42°12′59″E
temp.,
°C
wind,
m/s
gust,
m/s
humid.,
%
clouds,
%
prec.,
mm/h
press.,
hPa
HPBL,
m
15 june, tue
tue1500:00+17nnw11805 0.0 101511
03:00+14nne11885 0.0 101511
06:00+17ene12845 0.0 1015117
09:00+22se11665 0.0 1014591
12:00+25ssw11545 0.0 10131389
15:00+26se025181 0.0 10111339
18:00+22se2277100 0.1 101041
21:00+20s347970 0.1 101068
16 june, wed
wed1600:00+17sw33911 0.6 100937
03:00+16sw229238 0.6 100912
06:00+18sw118614 0.3 100986
09:00+18nw5790100 1.6 1010326
12:00+21nnw357646 0.6 1011661
15:00+22nnw576014 0.6 10121516
18:00+21n37640 0.0 1013863
21:00+15nw46790 0.0 101591
17 june, thu
thu1700:00+13nw3666100 0.0 101788
03:00+11nw410670 0.0 1019160
06:00+12nw4106791 0.0 1020297
09:00+17nnw58503 0.0 1022943
12:00+20nnw69442 0.0 10221862
15:00+21nw685012 0.0 10222246
18:00+20wnw6106156 0.0 1023718
21:00+15nw22775 0.0 102416
18 june, fri
fri1800:00+13nw22871 0.0 102512
03:00+12w11880 0.0 102610
06:00+15wnw128072 0.0 1027110
09:00+20w12630 0.0 1027529
12:00+24wsw23495 0.0 10261411
15:00+25w344772 0.0 10261548
18:00+24wsw2362100 0.0 1025385
21:00+18wsw34845 0.0 102557
19 june, sat
sat1900:00+16wsw36820 0.0 102698
03:00+15wsw48890 0.0 1026138
06:00+18wsw412820 0.0 1026341
09:00+23wsw68650 0.0 1025655
12:00+26w79530 0.0 10241579
15:00+27w69560 0.0 10231933
18:00+25wnw47640 0.0 1023533
21:00+20w33810 0.0 102336